| time (UTC) | temp F | wind direction | speed knots | gust knots | rain 1hr in | rain 24hr in | rain mn in | humidity % | barometer mb |
| 20260509174551 | 61 | 192 | 7.0 | 0.0 | 0.00 | 0.00 | 0.00 | 23 | 1004.2 |
| 20260509173108 | 60 | 207 | 8.7 | 0.0 | 0.00 | 0.00 | 0.00 | 19 | 1004.4 |
| 20260509171634 | 59 | 187 | 8.7 | 0.0 | 0.00 | 0.00 | 0.00 | 100 | 1004.6 |
| 20260509170025 | 59 | 204 | 7.0 | 0.0 | 0.00 | 0.00 | 0.00 | 100 | 1004.9 |
| 20260509164617 | 60 | 192 | 5.2 | 0.0 | 0.00 | 0.00 | 0.00 | 10 | 1005.1 |
| 20260509163011 | 59 | 205 | 7.8 | 0.0 | 0.00 | 0.00 | 0.00 | 100 | 1005.3 |
| 20260509161559 | 59 | 189 | 6.1 | 0.0 | 0.00 | 0.00 | 0.00 | 100 | 1005.5 |
| 20260509160050 | 58 | 190 | 7.0 | 0.0 | 0.00 | 0.00 | 0.00 | 100 | 1005.6 |
| 20260509154541 | 58 | 196 | 5.2 | 0.0 | 0.00 | 0.00 | 0.00 | 100 | 1005.7 |
| 20260509153035 | 58 | 200 | 7.8 | 0.0 | 0.00 | 0.00 | 0.00 | 100 | 1006.0 |
| 20260509151523 | 58 | 196 | 5.2 | 0.0 | 0.00 | 0.00 | 0.00 | 100 | 1006.1 |
| 20260509150014 | 57 | 200 | 6.1 | 0.0 | 0.00 | 0.00 | 0.00 | 100 | 1006.2 |
| 20260509144505 | 57 | 191 | 7.0 | 0.0 | 0.00 | 0.00 | 0.00 | 100 | 1006.3 |
| 20260509143158 | 56 | 209 | 7.0 | 0.0 | 0.00 | 0.00 | 0.00 | 100 | 1006.4 |
| 20260509141550 | 55 | 201 | 6.1 | 0.0 | 0.00 | 0.00 | 0.00 | 100 | 1006.5 |
| 20260509140040 | 55 | 194 | 6.1 | 0.0 | 0.00 | 0.00 | 0.00 | 100 | 1006.7 |
| 20260509134531 | 54 | 192 | 7.0 | 0.0 | 0.00 | 0.00 | 0.00 | 100 | 1006.9 |
| 20260509133121 | 53 | 180 | 7.0 | 0.0 | 0.00 | 0.00 | 0.00 | 100 | 1006.9 |
| 20260509131512 | 53 | 184 | 8.7 | 0.0 | 0.00 | 0.00 | 0.00 | 100 | 1007.0 |
| 20260509130009 | 52 | 190 | 7.8 | 0.0 | 0.00 | 0.00 | 0.00 | 100 | 1007.0 |
| 20260509124555 | 50 | 170 | 7.0 | 0.0 | 0.00 | 0.00 | 0.00 | 6 | 1007.2 |
| 20260509123115 | 49 | 180 | 7.8 | 0.0 | 0.00 | 0.00 | 0.00 | 5 | 1007.2 |
| 20260509121540 | 49 | 183 | 7.8 | 0.0 | 0.00 | 0.00 | 0.00 | 6 | 1007.4 |
| 20260509120031 | 48 | 191 | 7.8 | 0.0 | 0.00 | 0.00 | 0.00 | 8 | 1007.3 |
| 20260509114519 | 48 | 191 | 8.7 | 0.0 | 0.00 | 0.00 | 0.00 | 16 | 1007.5 |
| 20260509113012 | 48 | 180 | 9.6 | 0.0 | 0.00 | 0.00 | 0.00 | 16 | 1007.6 |
| 20260509111607 | 47 | 184 | 9.6 | 0.0 | 0.00 | 0.00 | 0.00 | 10 | 1007.5 |
| 20260509110106 | 46 | 188 | 8.7 | 0.0 | 0.00 | 0.00 | 0.00 | 15 | 1007.4 |
| 20260509104554 | 46 | 190 | 9.6 | 0.0 | 0.00 | 0.00 | 0.00 | 10 | 1007.3 |
| 20260509103145 | 46 | 194 | 7.0 | 0.0 | 0.00 | 0.00 | 0.00 | 12 | 1007.4 |
| 20260509101637 | 46 | 188 | 7.8 | 0.0 | 0.00 | 0.00 | 0.00 | 11 | 1007.3 |
| 20260509100027 | 46 | 193 | 8.7 | 0.0 | 0.00 | 0.00 | 0.00 | 1 | 1007.2 |
| 20260509094524 | 45 | 194 | 7.0 | 0.0 | 0.00 | 0.00 | 0.00 | 100 | 1007.1 |
| 20260509093109 | 45 | 186 | 7.0 | 0.0 | 0.00 | 0.00 | 0.00 | 100 | 1007.2 |
| 20260509091559 | 44 | 188 | 7.8 | 0.0 | 0.00 | 0.00 | 0.00 | 100 | 1007.4 |
| 20260509090151 | 44 | 190 | 8.7 | 0.0 | 0.00 | 0.00 | 0.00 | 100 | 1007.6 |
| 20260509084541 | 44 | 192 | 9.6 | 0.0 | 0.00 | 0.00 | 0.00 | 100 | 1007.7 |
| 20260509083032 | 44 | 189 | 8.7 | 0.0 | 0.00 | 0.00 | 0.00 | 100 | 1008.0 |
| 20260509081625 | 45 | 187 | 7.8 | 0.0 | 0.00 | 0.00 | 0.00 | 3 | 1008.2 |
| 20260509080014 | 45 | 182 | 7.8 | 0.0 | 0.00 | 0.00 | 0.00 | 18 | 1008.2 |
| 20260509073056 | 46 | 180 | 8.7 | 0.0 | 0.00 | 0.00 | 0.00 | 25 | 1008.2 |
| 20260509071650 | 47 | 171 | 7.0 | 0.0 | 0.00 | 0.00 | 0.00 | 27 | 1008.2 |
| 20260509070139 | 47 | 168 | 6.1 | 0.0 | 0.00 | 0.00 | 0.00 | 16 | 1008.2 |
| 20260509064529 | 47 | 192 | 5.2 | 0.0 | 0.00 | 0.00 | 0.00 | 27 | 1008.2 |
| 20260509063023 | 47 | 191 | 5.2 | 0.0 | 0.00 | 0.00 | 0.00 | 27 | 1008.4 |
| 20260509061610 | 47 | 193 | 3.5 | 0.0 | 0.00 | 0.00 | 0.00 | 36 | 1008.6 |
| 20260509060002 | 48 | 191 | 4.3 | 0.0 | 0.00 | 0.00 | 0.00 | 30 | 1008.7 |
| 20260509054609 | 48 | 195 | 4.3 | 0.0 | 0.00 | 0.00 | 0.00 | 40 | 1009.0 |
| 20260509053051 | 48 | 195 | 4.3 | 0.0 | 0.00 | 0.00 | 0.00 | 43 | 1009.1 |
| 20260509051542 | 48 | 192 | 3.5 | 0.0 | 0.00 | 0.00 | 0.00 | 46 | 1009.1 |
| 20260509050031 | 48 | 187 | 3.5 | 0.0 | 0.00 | 0.00 | 0.00 | 44 | 1009.3 |
| 20260509044523 | 49 | 183 | 4.3 | 0.0 | 0.00 | 0.00 | 0.00 | 44 | 1009.4 |
| 20260509043015 | 49 | 186 | 4.3 | 0.0 | 0.00 | 0.00 | 0.00 | 45 | 1009.6 |
| 20260509041517 | 49 | 185 | 6.1 | 0.0 | 0.00 | 0.00 | 0.00 | 50 | 1009.7 |
| 20260509040100 | 49 | 188 | 4.3 | 0.0 | 0.00 | 0.00 | 0.00 | 49 | 1009.7 |
| 20260509034551 | 48 | 184 | 1.7 | 0.0 | 0.00 | 0.00 | 0.04 | 40 | 1009.7 |
| 20260509033042 | 48 | 182 | 2.6 | 0.0 | 0.00 | 0.00 | 0.04 | 40 | 1009.8 |
| 20260509031534 | 49 | 181 | 5.2 | 0.0 | 0.00 | 0.00 | 0.04 | 38 | 1009.7 |
| 20260509030024 | 49 | 167 | 4.3 | 0.0 | 0.00 | 0.00 | 0.04 | 35 | 1009.8 |
| 20260509024516 | 49 | 166 | 5.2 | 0.0 | 0.00 | 0.00 | 0.04 | 41 | 1009.8 |
| 20260509023007 | 49 | 144 | 5.2 | 0.0 | 0.00 | 0.00 | 0.04 | 27 | 1009.9 |
| 20260509021559 | 49 | 119 | 3.5 | 0.0 | 0.00 | 0.00 | 0.04 | 18 | 1009.9 |
| 20260509020052 | 49 | 39 | 1.7 | 0.0 | 0.00 | 0.00 | 0.04 | 26 | 1010.0 |
| 20260509014543 | 50 | 39 | 0.9 | 0.0 | 0.00 | 0.00 | 0.04 | 31 | 1009.9 |
| 20260509013035 | 50 | 39 | 1.7 | 0.0 | 0.00 | 0.00 | 0.04 | 41 | 1009.7 |
| 20260509011524 | 51 | 39 | 0.9 | 0.0 | 0.00 | 0.00 | 0.04 | 50 | 1009.5 |
| 20260509010114 | 51 | 38 | 0.0 | 0.0 | 0.00 | 0.00 | 0.04 | 55 | 1009.3 |
| 20260509004508 | 52 | 38 | 0.0 | 0.0 | 0.00 | 0.00 | 0.04 | 54 | 1009.1 |
| 20260509003103 | 52 | 38 | 0.0 | 0.0 | 0.00 | 0.00 | 0.04 | 51 | 1009.0 |
| 20260509001548 | 52 | 38 | 0.0 | 0.0 | 0.00 | 0.00 | 0.04 | 48 | 1008.9 |
| 20260509000045 | 52 | 38 | 0.9 | 0.0 | 0.00 | 0.00 | 0.04 | 50 | 1008.9 |
| 20260508234532 | 52 | 38 | 0.9 | 0.0 | 0.00 | 0.00 | 0.04 | 52 | 1008.9 |
| 20260508233023 | 52 | 38 | 0.9 | 0.0 | 0.00 | 0.00 | 0.04 | 52 | 1009.0 |
| 20260508231514 | 53 | 38 | 0.9 | 0.0 | 0.00 | 0.00 | 0.04 | 51 | 1008.9 |
| 20260508230005 | 53 | 38 | 1.7 | 0.0 | 0.00 | 0.00 | 0.04 | 52 | 1008.8 |
| 20260508224603 | 53 | 38 | 1.7 | 0.0 | 0.00 | 0.00 | 0.04 | 52 | 1008.8 |
| 20260508223047 | 53 | 38 | 1.7 | 0.0 | 0.00 | 0.00 | 0.04 | 53 | 1008.9 |
| 20260508221538 | 53 | 38 | 0.9 | 0.0 | 0.00 | 0.00 | 0.04 | 51 | 1009.0 |
| 20260508220103 | 53 | 38 | 0.9 | 0.0 | 0.00 | 0.00 | 0.04 | 52 | 1009.1 |
| 20260508214622 | 53 | 39 | 0.0 | 0.0 | 0.00 | 0.00 | 0.04 | 49 | 1009.1 |
| 20260508211503 | 50 | 39 | 2.6 | 0.0 | 0.00 | 0.00 | 0.04 | 35 | 1009.3 |
| 20260508210157 | 50 | 40 | 2.6 | 0.0 | 0.00 | 0.00 | 0.04 | 36 | 1009.4 |
| 20260508204546 | 49 | 36 | 3.5 | 0.0 | 0.00 | 0.00 | 0.04 | 29 | 1009.6 |
| 20260508203046 | 48 | 32 | 2.6 | 0.0 | 0.00 | 0.00 | 0.04 | 17 | 1009.8 |
| 20260508201545 | 48 | 31 | 3.5 | 0.0 | 0.00 | 0.00 | 0.04 | 6 | 1010.0 |
| 20260508200037 | 49 | 21 | 2.6 | 0.0 | 0.00 | 0.00 | 0.04 | 6 | 1010.1 |
| 20260508194534 | 49 | 11 | 2.6 | 0.0 | 0.00 | 0.00 | 0.04 | 100 | 1010.3 |
| 20260508193123 | 49 | 350 | 2.6 | 0.0 | 0.00 | 0.00 | 0.04 | 100 | 1010.5 |
| 20260508191517 | 48 | 13 | 3.5 | 0.0 | 0.00 | 0.00 | 0.04 | 100 | 1010.5 |
| 20260508190109 | 48 | 22 | 4.3 | 0.0 | 0.00 | 0.00 | 0.04 | 100 | 1010.5 |
| 20260508184554 | 48 | 5 | 4.3 | 0.0 | 0.00 | 0.00 | 0.04 | 100 | 1010.5 |
| 20260508183047 | 47 | 5 | 5.2 | 0.0 | 0.00 | 0.00 | 0.04 | 100 | 1010.5 |
| 20260508181548 | 46 | 360 | 6.1 | 0.0 | 0.00 | 0.00 | 0.04 | 100 | 1010.6 |
| 20260508180027 | 47 | 351 | 6.1 | 0.0 | 0.00 | 0.00 | 0.04 | 4 | 1010.7 |